Date String (YYYY-MM-DD hh:mm:ss) UTC,Instrument flags,Ambient pressure (hPa),Sample flow (lpm),Bypass flow (lpm),Sample temperature (°C),Ambient temperature (°C),ASC tube jacket temperature (°C),LED temperature (°C),Box temperature (°C),Sample RH (%),Span deviation,Mass concentration (μg/m³),Mass concentration (μg/m³),Mass concentration (μg/m³)
DateTimeUTC,F1_M11,P_M11,Q1_M11,Q2_M11,T1_M11,T2_M11,T3_M11,T4_M11,T5_M11,U1_M11,ZSPAN_M11,X0_M11,X2_M11,X1_M11
2023-02-24 18:00:00,,0824.8,5.00,0.00,23.0,21.6,00.0,31.6,24.7,05.9,-000.3,0014.79,0009.31,0008.81
2023-02-24 18:01:00,,0824.9,4.98,0.00,23.0,21.5,00.0,31.6,24.7,05.9,-000.3,0014.86,0009.38,0008.87
2023-02-24 18:02:00,,0824.7,5.02,0.00,23.0,21.5,00.0,31.6,24.6,05.9,-001.0,0014.84,0009.39,0008.90
2023-02-24 18:03:00,,0824.6,5.01,0.00,22.9,21.4,00.0,31.6,24.6,06.0,-001.1,0014.66,0009.37,0008.89
2023-02-24 18:04:00,,0824.6,4.98,0.00,22.9,21.3,00.0,31.6,24.6,05.9,-000.9,0014.64,0009.33,0008.86
2023-02-24 18:05:00,,0824.9,5.02,0.00,22.9,21.2,00.0,31.6,24.5,05.9,-000.9,0014.71,0009.35,0008.84
2023-02-24 18:06:00,,0824.5,5.03,0.00,22.9,21.2,00.0,31.6,24.5,06.0,-001.4,0014.77,0009.36,0008.84
2023-02-24 18:07:00,,0824.7,5.01,0.00,22.9,21.2,00.0,31.6,24.5,06.0,-001.5,0014.81,0009.36,0008.84
2023-02-24 18:08:00,,0824.7,4.98,0.00,22.8,21.0,00.0,31.6,24.4,06.0,-001.7,0014.81,0009.31,0008.82
2023-02-24 18:09:00,,0824.7,5.00,0.00,22.7,20.8,00.0,31.6,24.3,06.0,-001.4,0014.71,0009.28,0008.80
2023-02-24 18:10:00,,0824.6,4.99,0.00,22.7,20.7,00.0,31.6,24.2,06.1,-000.9,0014.68,0009.26,0008.77
2023-02-24 18:11:00,,0824.7,5.00,0.00,22.6,20.6,00.0,31.5,24.1,06.1,0000.1,0014.62,0009.22,0008.72
2023-02-24 18:12:00,,0824.4,4.99,0.00,22.6,20.6,00.0,31.5,24.1,06.1,-000.2,0014.55,0009.17,0008.65
2023-02-24 18:13:00,,0824.6,5.01,0.00,22.6,21.7,00.0,31.5,24.3,06.0,-000.1,0014.53,0009.15,0008.59
2023-02-24 18:14:00,,0824.7,4.97,0.00,22.7,22.8,00.0,31.4,24.6,05.9,0000.1,0014.30,0009.11,0008.54
2023-02-24 18:15:00,,0824.7,4.97,0.00,22.8,22.6,00.0,31.5,24.6,05.9,0000.4,0014.41,0009.10,0008.51
2023-02-24 18:16:00,,0824.8,4.99,0.00,22.8,22.1,00.0,31.5,24.4,05.9,0001.3,0014.27,0009.02,0008.46
2023-02-24 18:17:00,,0824.8,4.98,0.00,22.7,21.7,00.0,31.5,24.4,06.0,0001.7,0014.84,0008.98,0008.41
2023-02-24 18:18:00,,0824.9,5.01,0.00,22.7,21.5,00.0,31.5,24.4,06.0,0002.2,0014.94,0008.93,0008.36
2023-02-24 18:19:00,,0825.1,5.00,0.00,22.7,21.3,00.0,31.5,24.3,06.0,0002.1,0014.87,0008.93,0008.32
2023-02-24 18:20:00,,0825.0,5.00,0.00,22.7,21.1,00.0,31.5,24.3,06.1,0001.9,0015.46,0008.90,0008.27
2023-02-24 18:21:00,,0825.1,5.02,0.00,22.7,21.0,00.0,31.5,24.3,06.1,0002.2,0015.38,0008.83,0008.23
2023-02-24 18:22:00,,0825.3,5.00,0.00,22.7,20.9,00.0,31.5,24.3,06.0,0001.7,0015.58,0008.80,0008.21
2023-02-24 18:23:00,,0825.2,5.00,0.00,22.6,20.9,00.0,31.5,24.3,06.0,0002.3,0016.03,0008.81,0008.21
2023-02-24 18:24:00,,0825.3,5.01,0.00,22.6,20.8,00.0,31.4,24.2,06.1,0002.6,0016.14,0008.79,0008.23
2023-02-24 18:25:00,,0825.0,4.99,0.00,22.6,20.6,00.0,31.4,24.1,06.1,0002.7,0016.13,0008.82,0008.26
2023-02-24 18:26:00,,0824.9,5.00,0.00,22.5,20.5,00.0,31.4,24.1,06.1,0002.3,0015.74,0008.87,0008.34
2023-02-24 18:27:00,,0824.9,5.00,0.00,22.5,20.5,00.0,31.4,23.9,06.2,0002.2,0015.93,0008.95,0008.42
2023-02-24 18:28:00,,0824.9,4.99,0.00,22.5,21.5,00.0,31.3,24.2,06.1,0001.2,0015.58,0009.02,0008.50
2023-02-24 18:29:00,,0824.8,4.99,0.00,22.6,22.7,00.0,31.3,24.5,06.2,0000.9,0015.17,0009.08,0008.58
2023-02-24 18:30:00,,0824.9,4.97,0.00,22.7,22.6,00.0,31.3,24.5,06.2,0000.1,0015.38,0009.19,0008.67
2023-02-24 18:31:00,,0824.9,4.98,0.00,22.7,22.0,00.0,31.4,24.4,06.2,0000.2,0015.13,0009.29,0008.79
2023-02-24 18:32:00,,0824.9,5.00,0.00,22.6,21.7,00.0,31.4,24.3,06.4,0000.0,0015.30,0009.41,0008.89
2023-02-24 18:33:00,,0825.0,5.01,0.00,22.6,21.4,00.0,31.4,24.3,06.6,0000.0,0015.20,0009.45,0008.90
2023-02-24 18:34:00,,0824.9,4.99,0.00,22.6,21.2,00.0,31.4,24.2,06.7,0000.0,0014.87,0009.47,0008.97
2023-02-24 18:35:00,,0824.9,5.00,0.00,22.6,21.0,00.0,31.4,24.2,06.9,0000.0,0014.59,0009.44,0008.96
2023-02-24 18:36:00,,0824.8,5.00,0.00,22.6,20.9,00.0,31.4,24.2,07.0,0000.0,0014.82,0009.42,0008.94
2023-02-24 18:37:00,,0824.8,5.02,0.00,22.5,20.8,00.0,31.3,24.1,07.4,0000.0,0014.57,0009.20,0008.72
2023-02-24 18:38:00,,0824.8,5.01,0.00,22.5,20.7,00.0,31.3,24.1,07.5,0000.0,0014.09,0008.91,0008.45
2023-02-24 18:39:00,,0824.7,4.99,0.00,22.5,20.6,00.0,31.3,24.1,07.5,0000.0,0013.82,0008.73,0008.27
2023-02-24 18:40:00,,0824.8,5.00,0.00,22.4,20.6,00.0,31.3,24.0,07.9,0000.0,0013.26,0008.31,0007.87
2023-02-24 18:41:00,,0824.7,5.00,0.00,22.4,20.5,00.0,31.3,23.9,08.2,0000.0,0012.46,0007.75,0007.36
2023-02-24 18:42:00,,0824.8,5.01,0.00,22.4,20.5,00.0,31.2,23.9,08.3,0000.0,0011.78,0007.25,0006.86
2023-02-24 18:43:00,,0824.8,4.99,0.00,22.4,21.9,00.0,31.2,24.2,08.4,0000.0,0010.91,0006.75,0006.39
2023-02-24 18:44:00,,0824.9,5.02,0.00,22.6,23.0,00.0,31.2,24.5,08.3,0000.0,0010.59,0006.43,0006.09
2023-02-24 18:45:00,,0824.9,5.04,0.00,22.7,22.9,00.0,31.3,24.6,08.2,0000.0,0010.90,0006.23,0005.88
2023-02-24 18:46:00,,0824.9,5.03,0.00,22.7,22.5,00.0,31.3,24.5,08.4,0000.0,0010.44,0005.88,0005.55
2023-02-24 18:47:00,,0824.9,4.99,0.00,22.7,22.1,00.0,31.3,24.5,08.4,0000.0,0009.73,0005.53,0005.23
2023-02-24 18:48:00,,0824.9,5.01,0.00,22.7,21.8,00.0,31.3,24.4,07.7,0000.0,0010.41,0005.54,0005.23
2023-02-24 18:49:00,,0824.9,4.98,0.00,22.7,21.6,00.0,31.3,24.3,07.2,0000.0,0011.16,0005.86,0005.52
2023-02-24 18:50:00,,0824.9,5.00,0.00,22.6,21.3,00.0,31.4,24.3,07.2,0000.0,0012.28,0006.16,0005.78
2023-02-24 18:51:00,,0824.9,4.99,0.00,22.6,21.1,00.0,31.3,24.2,07.2,0000.0,0013.74,0006.58,0006.16
2023-02-24 18:52:00,,0824.7,5.01,0.00,22.6,21.0,00.0,31.3,24.2,08.0,0000.0,0014.32,0006.93,0006.50
2023-02-24 18:53:00,,0824.6,5.01,0.00,22.6,21.0,00.0,31.3,24.2,09.6,0000.0,0014.42,0006.82,0006.37
2023-02-24 18:54:00,,0824.6,5.00,0.00,22.6,20.9,00.0,31.3,24.2,09.8,0000.0,0014.58,0006.71,0006.22
2023-02-24 18:55:00,,0824.6,5.00,0.00,22.5,20.8,00.0,31.3,24.1,09.5,0000.0,0014.90,0006.58,0006.11
2023-02-24 18:56:00,,0824.6,4.99,0.00,22.5,20.7,00.0,31.3,24.0,08.6,0000.0,0015.07,0006.47,0005.98
2023-02-24 18:57:00,,0824.6,5.00,0.00,22.4,20.5,00.0,31.3,23.9,08.0,0000.0,0015.79,0006.67,0006.13
2023-02-24 18:58:00,,0824.4,5.00,0.00,22.4,20.4,00.0,31.2,23.9,08.3,0000.0,0016.05,0006.78,0006.21
2023-02-24 18:59:00,,0824.4,5.00,0.00,22.3,20.5,00.0,31.2,23.9,09.3,0000.0,0015.26,0006.52,0005.97
